DW6561 Weather Reports


time (UTC)temp
F
wind
direction
speed
knots
gust
knots
rain 1hr
in
rain 24hr
in
rain mn
in
humidity
%
barometer
mb
20260510051501 64 163 0.0 0.0 0.00 0.00 0.00 41 1016.2
20260510050007 65 163 0.0 0.0 0.00 0.00 0.00 39 1016.3
20260510043003 65 162 0.9 3.5 0.00 0.00 0.00 37 1016.6
20260510041505 66 95 0.0 0.0 0.00 0.00 0.00 41 1016.5
20260510040006 67 95 0.0 0.9 0.00 0.00 0.00 38 1016.4
20260510034512 67 95 0.0 0.9 0.00 0.00 0.00 38 1016.3
20260510033017 68 95 0.0 0.0 0.00 0.00 0.00 36 1016.5
20260510031516 69 95 0.0 0.0 0.00 0.00 0.00 36 1016.3
20260510030007 70 95 0.0 0.0 0.00 0.00 0.00 37 1016.4
20260510024510 71 95 0.0 0.0 0.00 0.00 0.00 36 1016.4
20260510023022 72 95 0.0 0.0 0.00 0.00 0.00 35 1016.5
20260510021520 73 95 0.0 1.7 0.00 0.00 0.00 34 1016.6
20260510020022 73 121 0.0 0.0 0.00 0.00 0.00 32 1016.6
20260510014517 74 121 0.0 0.9 0.00 0.00 0.00 31 1016.8
20260510013006 74 121 0.0 0.9 0.00 0.00 0.00 32 1016.8
20260510011522 75 103 0.0 2.6 0.00 0.00 0.00 31 1017.1
20260510010009 76 94 0.0 1.7 0.00 0.00 0.00 31 1017.2
20260510004507 76 93 0.0 2.6 0.00 0.00 0.00 32 1017.3
20260510003004 77 90 0.9 3.5 0.00 0.00 0.00 31 1017.4
20260510001506 77 352 0.0 2.6 0.00 0.00 0.00 33 1017.5
20260510000004 78 90 0.0 2.6 0.00 0.00 0.00 32 1017.5
20260509234518 78 38 0.0 2.6 0.00 0.00 0.00 31 1017.6
20260509233028 78 308 0.0 1.7 0.00 0.00 0.00 30 1017.7
20260509231514 78 91 0.0 3.5 0.00 0.00 0.00 30 1017.9
20260509230004 78 90 0.0 2.6 0.00 0.00 0.00 32 1018.0
20260509224513 78 327 0.0 3.5 0.00 0.00 0.00 32 1018.3
20260509223018 78 295 0.9 2.6 0.00 0.00 0.00 32 1018.5
20260509221516 78 327 0.0 2.6 0.00 0.00 0.00 33 1018.7
20260509220016 78 315 0.0 1.7 0.00 0.00 0.00 34 1018.9
20260509214507 77 79 0.0 2.6 0.00 0.00 0.00 33 1019.0
20260509213010 77 272 0.0 2.6 0.00 0.00 0.00 34 1019.1
20260509211513 77 154 0.0 2.6 0.00 0.00 0.00 35 1019.3
20260509210017 76 131 0.0 2.6 0.00 0.00 0.00 36 1019.5
20260509204518 76 306 0.0 3.5 0.00 0.00 0.00 35 1019.5
20260509203009 76 112 0.9 2.6 0.00 0.00 0.00 37 1019.7
20260509201514 76 325 0.0 2.6 0.00 0.00 0.00 37 1019.8
20260509200016 75 160 0.0 2.6 0.00 0.00 0.00 41 1019.8
20260509194520 75 95 0.0 2.6 0.00 0.00 0.00 39 1019.9
20260509193025 74 113 1.7 4.3 0.00 0.00 0.00 39 1020.2
20260509191526 74 248 0.9 6.1 0.00 0.00 0.00 39 1020.3
20260509190018 74 151 0.0 2.6 0.00 0.00 0.00 42 1020.5
20260509184526 73 132 0.0 3.5 0.00 0.00 0.00 35 1020.7
20260509183014 73 46 0.0 2.6 0.00 0.00 0.00 36 1020.8
20260509181524 73 196 0.9 4.3 0.00 0.00 0.00 37 1020.8
20260509180027 72 64 0.0 1.7 0.00 0.00 0.00 40 1020.9
20260509174521 71 105 0.9 4.3 0.00 0.00 0.00 40 1021.0
20260509173026 70 107 0.0 6.1 0.00 0.00 0.00 41 1021.1
20260509171533 69 258 0.0 1.7 0.00 0.00 0.00 45 1021.2
20260509170024 67 178 0.9 5.2 0.00 0.00 0.00 45 1021.4
20260509164525 66 144 1.7 3.5 0.00 0.00 0.00 46 1021.3
20260509161531 64 182 2.6 6.1 0.00 0.00 0.00 51 1021.6
20260509160008 63 184 2.6 7.8 0.00 0.00 0.00 53 1021.6
20260509154510 62 216 2.6 8.7 0.00 0.00 0.00 56 1021.7
20260509153010 61 215 1.7 6.1 0.00 0.00 0.00 58 1021.6
20260509151503 59 80 0.9 3.5 0.00 0.00 0.00 60 1021.7
20260509150010 58 307 0.0 5.2 0.00 0.00 0.00 62 1021.4
20260509144518 57 153 0.0 7.0 0.00 0.00 0.00 66 1021.3
20260509143010 56 149 0.0 5.2 0.00 0.00 0.00 68 1021.3
20260509141507 55 188 0.9 5.2 0.00 0.00 0.00 69 1021.2
20260509140005 54 145 1.7 5.2 0.00 0.00 0.00 70 1021.1
20260509134504 53 155 1.7 7.0 0.00 0.00 0.00 72 1020.9
20260509133011 52 190 1.7 5.2 0.00 0.00 0.00 74 1020.8
20260509131515 51 178 1.7 6.1 0.00 0.00 0.00 74 1020.7
20260509130005 51 114 2.6 6.1 0.00 0.00 0.00 73 1020.6
20260509124507 52 153 2.6 6.1 0.00 0.00 0.00 73 1020.5
20260509123010 52 164 2.6 8.7 0.00 0.00 0.00 73 1020.5
20260509121521 52 182 1.7 7.0 0.00 0.00 0.00 74 1020.4
20260509120017 52 200 2.6 6.1 0.00 0.00 0.00 71 1020.4
20260509114519 52 171 1.7 7.0 0.00 0.00 0.00 70 1020.3
20260509113010 53 136 3.5 7.8 0.00 0.00 0.00 70 1020.3
20260509111513 52 132 2.6 7.8 0.00 0.00 0.00 71 1020.3
20260509110014 52 209 3.5 7.0 0.00 0.00 0.00 71 1020.3
20260509104508 52 171 1.7 6.1 0.00 0.00 0.00 70 1020.3
20260509103012 52 159 3.5 8.7 0.00 0.00 0.00 71 1020.2
20260509101514 52 181 1.7 8.7 0.00 0.00 0.00 70 1020.0
20260509100016 52 153 2.6 7.8 0.00 0.00 0.00 69 1020.2
20260509094524 53 139 0.0 5.2 0.00 0.00 0.00 66 1020.0
20260509093015 55 165 2.6 6.1 0.00 0.00 0.00 62 1020.1
20260509091514 55 92 0.9 2.6 0.00 0.00 0.00 60 1019.9
20260509090044 55 189 3.5 8.7 0.00 0.00 0.00 62 1019.8
20260509084527 56 230 0.9 6.1 0.00 0.00 0.00 57 1019.6
20260509083040 56 155 2.6 9.6 0.00 0.00 0.00 59 1019.6
20260509081528 56 241 0.9 4.3 0.00 0.00 0.00 57 1019.3
20260509080028 55 180 4.3 9.6 0.00 0.00 0.00 60 1019.3
20260509074533 56 184 0.9 7.8 0.00 0.00 0.00 56 1019.3
20260509073025 56 163 5.2 8.7 0.00 0.00 0.00 55 1019.4
20260509071526 58 197 0.9 4.3 0.00 0.00 0.00 51 1019.1
20260509070012 58 204 4.3 8.7 0.00 0.00 0.00 51 1018.8
20260509064506 59 125 3.5 8.7 0.00 0.00 0.00 46 1018.9
20260509063021 58 146 2.6 7.8 0.00 0.00 0.00 44 1018.8
20260509061512 59 180 1.7 4.3 0.00 0.00 0.00 43 1018.8
20260509060015 60 200 0.9 3.5 0.00 0.00 0.00 41 1018.5
20260509054518 60 209 0.0 4.3 0.00 0.00 0.00 41 1018.4
20260509053024 60 208 0.0 3.5 0.00 0.00 0.00 40 1018.3